Daily weather history


Statistical History for Wednesday, February 27, 2013

Tampa Knight Airport, FL


  Actual Average (KTPA) Record (KTPA)
Temperature
Mean Temperature 65 °F  
Max Temperature 74 °F 85 °F (1939)
Min Temperature 56 °F 30 °F (1974)
Degree Days
Heating Degree Days 3  
Month to date heating degree days 104  
Since 1 July heating degree days 469  
Cooling Degree Days 3  
Month to date cooling degree days 59  
Year to date cooling degree days 109  
Growing Degree Days 14 (Base - )  
Moisture
Dew Point   
Average Humidity    
Maximum Humidity    
Minimum Humidity    
Precipitation
Precipitation 0.09 in 1.48 in (1946)
Month to date precipitation 2.72  
Year to date precipitation 4.95  
Wind
Wind Speed   
Max Wind Speed   
Max Gust Speed   
Visibility   
Events   

Key: T is trace of precipitation, MM is missing value
Source: NWS Daily Summary
Time(EST)TemperatureDew PointHumidity Sea Level Pressure Visibility Wind DirectionWind SpeedGust SpeedPrecipitationEventsConditions
12:15 AM 66.2 °F 59.0 °F 78% 29.91 in 10.0 miles West 4.6 mph - N/A   Clear
12:35 AM 66.2 °F 59.0 °F 78% 29.91 in 10.0 miles West 4.6 mph - N/A   Scattered Clouds
12:55 AM 66.2 °F 59.0 °F 78% 29.91 in 10.0 miles West 4.6 mph - N/A   Scattered Clouds
1:15 AM 66.2 °F 59.0 °F 78% 29.91 in 10.0 miles West 3.5 mph - N/A   Clear
1:35 AM 64.4 °F 59.0 °F 83% 29.91 in 10.0 miles West 5.8 mph - N/A   Clear
1:55 AM 64.4 °F 59.0 °F 83% 29.91 in 10.0 miles West 4.6 mph - N/A   Clear
2:15 AM 64.4 °F 59.0 °F 83% 29.91 in 10.0 miles West 4.6 mph - N/A   Clear
2:35 AM 64.4 °F 57.2 °F 77% 29.90 in 10.0 miles West 3.5 mph - N/A   Clear
2:55 AM 64.4 °F 57.2 °F 77% 29.89 in 10.0 miles West 3.5 mph - N/A   Scattered Clouds
3:15 AM 66.2 °F 59.0 °F 78% 29.89 in 10.0 miles West 3.5 mph - N/A   Mostly Cloudy
3:35 AM 66.2 °F 59.0 °F 78% 29.89 in 10.0 miles WNW 4.6 mph - N/A   Mostly Cloudy
3:55 AM 64.4 °F 59.0 °F 83% 29.90 in 10.0 miles NW 4.6 mph - N/A   Scattered Clouds
4:15 AM 64.4 °F 59.0 °F 83% 29.91 in 10.0 miles Calm Calm - N/A   Scattered Clouds
4:35 AM 64.4 °F 57.2 °F 77% 29.91 in 10.0 miles Calm Calm - N/A   Scattered Clouds
4:55 AM 64.4 °F 57.2 °F 77% 29.91 in 10.0 miles Calm Calm - N/A   Mostly Cloudy
5:15 AM 64.4 °F 57.2 °F 77% 29.92 in 10.0 miles Calm Calm - N/A   Scattered Clouds
5:35 AM 62.6 °F 57.2 °F 82% 29.92 in 10.0 miles Calm Calm - N/A   Clear
5:55 AM 62.6 °F 57.2 °F 82% 29.92 in 10.0 miles NNW 3.5 mph - N/A   Scattered Clouds
6:15 AM 62.6 °F 57.2 °F 82% 29.93 in 10.0 miles Calm Calm - N/A   Scattered Clouds
6:35 AM 60.8 °F 55.4 °F 82% 29.93 in 10.0 miles Calm Calm - N/A   Clear
6:55 AM 60.8 °F 55.4 °F 82% 29.93 in 10.0 miles Calm Calm - N/A   Clear
7:15 AM 60.8 °F 55.4 °F 82% 29.93 in 10.0 miles Calm Calm - N/A   Clear
7:55 AM 62.6 °F 55.4 °F 77% 29.96 in 10.0 miles NNW 4.6 mph - N/A   Clear
8:15 AM 62.6 °F 55.4 °F 77% 29.95 in 10.0 miles North 5.8 mph - N/A   Clear
8:35 AM 64.4 °F 55.4 °F 73% 29.97 in 10.0 miles NNW 6.9 mph - N/A   Clear
8:55 AM 64.4 °F 55.4 °F 73% 29.98 in 10.0 miles North 5.8 mph - N/A   Scattered Clouds
9:15 AM 64.4 °F 55.4 °F 73% 29.99 in 10.0 miles North 4.6 mph - N/A   Overcast
9:35 AM 66.2 °F 55.4 °F 68% 30.00 in 10.0 miles North 6.9 mph - N/A   Mostly Cloudy
9:55 AM 66.2 °F 55.4 °F 68% 29.99 in 10.0 miles North 5.8 mph - N/A   Clear
10:15 AM 66.2 °F 53.6 °F 64% 29.99 in 10.0 miles North 4.6 mph - N/A   Mostly Cloudy
10:35 AM 68.0 °F 53.6 °F 60% 30.00 in 10.0 miles NW 4.6 mph - N/A   Mostly Cloudy
10:55 AM 68.0 °F 53.6 °F 60% 30.00 in 10.0 miles Calm Calm - N/A   Scattered Clouds
11:15 AM 68.0 °F 53.6 °F 60% 30.00 in 10.0 miles NW 3.5 mph - N/A   Scattered Clouds
11:35 AM 68.0 °F 53.6 °F 60% 29.99 in 10.0 miles NW 5.8 mph - N/A   Scattered Clouds
11:55 AM 69.8 °F 53.6 °F 56% 29.98 in 10.0 miles West 4.6 mph - N/A   Scattered Clouds
12:15 PM 69.8 °F 53.6 °F 56% 29.99 in 10.0 miles West 8.1 mph - N/A   Clear
12:35 PM 69.8 °F 53.6 °F 56% 29.98 in 10.0 miles West 5.8 mph - N/A   Clear
12:55 PM 69.8 °F 53.6 °F 56% 29.98 in 10.0 miles West 6.9 mph - N/A   Clear
1:15 PM 69.8 °F 53.6 °F 56% 29.96 in 10.0 miles WSW 6.9 mph - N/A   Clear
1:35 PM 69.8 °F 53.6 °F 56% 29.96 in 10.0 miles West 5.8 mph - N/A   Clear
1:55 PM 69.8 °F 53.6 °F 56% 29.96 in 10.0 miles West 6.9 mph - N/A   Clear
2:15 PM 69.8 °F 53.6 °F 56% 29.94 in 10.0 miles West 4.6 mph - N/A   Clear
2:35 PM 69.8 °F 53.6 °F 56% 29.94 in 10.0 miles WNW 4.6 mph - N/A   Clear
3:15 PM 69.8 °F 53.6 °F 56% 29.94 in 10.0 miles WNW 4.6 mph - N/A   Mostly Cloudy
3:35 PM 69.8 °F 53.6 °F 56% 29.94 in 10.0 miles WNW 8.1 mph - N/A   Mostly Cloudy
3:55 PM 69.8 °F 53.6 °F 56% 29.94 in 10.0 miles WNW 6.9 mph - N/A   Scattered Clouds
4:15 PM 68.0 °F 51.8 °F 56% 29.95 in 10.0 miles WNW 5.8 mph - N/A   Mostly Cloudy
4:35 PM 68.0 °F 51.8 °F 56% 29.95 in 10.0 miles WNW 5.8 mph - N/A   Mostly Cloudy
4:55 PM 68.0 °F 51.8 °F 56% 29.96 in 10.0 miles NW 6.9 mph - N/A   Scattered Clouds
5:15 PM 66.2 °F 51.8 °F 60% 29.95 in 10.0 miles Calm Calm - N/A   Clear
5:35 PM 64.4 °F 51.8 °F 64% 29.96 in 10.0 miles West 4.6 mph - N/A   Clear
5:55 PM 64.4 °F 51.8 °F 64% 29.95 in 10.0 miles West 3.5 mph - N/A   Clear
6:15 PM 62.6 °F 51.8 °F 68% 29.96 in 10.0 miles West 5.8 mph - N/A   Clear
6:35 PM 62.6 °F 51.8 °F 68% 29.96 in 10.0 miles NW 5.8 mph - N/A   Clear
6:55 PM 62.6 °F 50.0 °F 63% 29.96 in 10.0 miles NNW 3.5 mph - N/A   Clear
7:15 PM 60.8 °F 50.0 °F 68% 29.97 in 10.0 miles NNW 5.8 mph - N/A   Clear
7:35 PM 60.8 °F 50.0 °F 68% 29.98 in 10.0 miles NNW 4.6 mph - N/A   Clear
7:55 PM 59.0 °F 50.0 °F 72% 29.99 in 10.0 miles NNW 5.8 mph - N/A   Clear
8:15 PM 59.0 °F 50.0 °F 72% 29.99 in 10.0 miles NNW 6.9 mph - N/A   Clear
9:15 PM 59.0 °F 50.0 °F 72% 30.00 in 10.0 miles NNW 3.5 mph - N/A   Clear
9:35 PM 59.0 °F 50.0 °F 72% 29.99 in 10.0 miles NNW 3.5 mph - N/A   Clear
9:55 PM 59.0 °F 50.0 °F 72% 29.99 in 10.0 miles Calm Calm - N/A   Clear
10:15 PM 59.0 °F 50.0 °F 72% 30.00 in 10.0 miles North 3.5 mph - N/A   Clear
10:35 PM 59.0 °F 50.0 °F 72% 30.00 in 10.0 miles NNW 4.6 mph - N/A   Clear
10:55 PM 59.0 °F 50.0 °F 72% 30.00 in 10.0 miles Calm Calm - N/A   Clear
11:15 PM 59.0 °F 50.0 °F 72% 30.00 in 10.0 miles NNW 3.5 mph - N/A   Clear
11:35 PM 59.0 °F 50.0 °F 72% 30.00 in 10.0 miles Calm Calm - N/A   Clear
11:55 PM 59.0 °F 50.0 °F 72% 29.99 in 10.0 miles Calm Calm - N/A   Clear
ADVERTISEMENT
Enter city or zip code to search weather conditions:

My favorites Edit

Mostly Cloudy
77°
Mostly Cloudy

Overcast
75°
Overcast

Clear
77°
Clear


  • 490 First Avenue South
  • St. Petersburg, FL 33701
  • 727-893-8111